EW2654 Weather Reports


time (UTC)temp
C
wind
direction
speed
KPH
gust
KPH
rain 1hr
cm
rain 24hr
cm
rain mn
cm
humidity
%
barometer
mb
20260508043025 8 286 3.2 11.3 0.00 1.55 0.00 100 1001.4
20260508041522 8 207 0.0 0.0 0.00 1.55 0.00 100 1001.6
20260508040028 8 207 0.0 0.0 0.00 1.55 0.00 100 1001.7
20260508034520 8 207 0.0 0.0 0.00 1.55 0.00 100 1001.7
20260508033016 8 207 0.0 0.0 0.00 1.55 0.00 99 1001.7
20260508031516 8 207 0.0 4.8 0.00 1.55 0.00 99 1001.6
20260508030022 8 207 0.0 0.0 0.00 1.55 0.00 99 1001.7
20260508024516 7 211 0.0 8.0 0.00 1.55 1.55 99 1001.5
20260508023010 7 188 1.6 6.4 0.00 1.55 1.55 99 1001.4
20260508021550 7 199 3.2 8.0 0.00 1.55 1.55 99 1001.4
20260508020104 7 178 3.2 14.5 0.00 1.55 1.55 99 1001.7
20260508014556 7 206 6.4 11.3 0.00 1.55 1.55 99 1001.5
20260508013059 7 209 4.8 12.9 0.00 1.55 1.55 99 1001.3
20260508011547 8 193 6.4 14.5 0.00 1.55 1.55 99 1001.6
20260508010045 8 174 4.8 16.1 0.00 1.55 1.55 99 1002.0
20260508004544 8 177 8.0 17.7 0.00 1.55 1.55 99 1001.9
20260508003045 8 168 6.4 14.5 0.00 1.55 1.55 99 1001.8
20260508001551 8 216 9.7 14.5 0.00 1.55 1.55 99 1001.8
20260508000042 8 188 6.4 14.5 0.00 1.55 1.55 99 1002.2
20260507234542 8 193 6.4 22.5 0.00 1.55 1.55 99 1002.2
20260507233042 8 190 8.0 14.5 0.03 1.55 1.55 99 1002.5
20260507231540 8 182 12.9 24.1 0.03 1.55 1.55 99 1002.4
20260507230040 8 163 11.3 32.2 0.03 1.55 1.55 99 1002.4
20260507224540 8 145 16.1 27.4 0.03 1.55 1.55 98 1002.7
20260507223039 8 158 17.7 30.6 0.00 1.55 1.55 99 1002.3
20260507221538 8 187 12.9 22.5 0.05 1.55 1.55 98 1002.9
20260507220038 8 150 14.5 29.0 0.15 1.55 1.55 98 1002.2
20260507214539 8 153 17.7 33.8 0.43 1.55 1.55 98 1002.2
20260507213042 8 137 19.3 29.0 0.61 1.55 1.55 98 1002.6
20260507211543 8 170 19.3 33.8 0.71 1.45 1.45 98 1003.2
20260507210029 8 181 19.3 41.8 0.81 1.37 1.37 98 1003.4
20260507204525 8 138 12.9 24.1 0.71 1.12 1.12 98 1004.4
20260507203024 8 228 12.9 37.0 0.69 0.94 0.94 98 1004.8
20260507201533 8 177 19.3 35.4 0.56 0.71 0.71 98 1004.2
20260507200022 8 144 19.3 37.0 0.43 0.53 0.53 98 1004.5
20260507194517 9 157 16.1 32.2 0.33 0.38 0.38 98 1004.9
20260507193020 9 168 19.3 41.8 0.23 0.23 0.23 98 1005.0
20260507191521 9 146 17.7 37.0 0.18 0.18 0.18 98 1005.5
20260507190016 9 153 17.7 27.4 0.10 0.10 0.10 98 1005.4
20260507184511 9 164 16.1 43.5 0.05 0.05 0.05 97 1005.2
20260507183009 9 203 16.1 41.8 0.03 0.03 0.03 96 1005.2
20260507181507 10 162 20.9 37.0 0.00 0.00 0.00 96 1005.0
20260507180008 10 165 19.3 41.8 0.00 0.00 0.00 95 1005.5
20260507174512 10 153 25.7 38.6 0.00 0.00 0.00 94 1005.8
20260507173003 11 127 24.1 37.0 0.00 0.00 0.00 94 1006.2
20260507171503 11 158 19.3 38.6 0.00 0.00 0.00 94 1006.3
20260507170100 11 164 16.1 33.8 0.00 0.00 0.00 94 1007.1
20260507164559 11 144 16.1 35.4 0.00 0.00 0.00 95 1007.1
20260507163058 11 156 24.1 41.8 0.00 0.00 0.00 94 1007.6
20260507161556 10 198 22.5 35.4 0.00 0.00 0.00 94 1008.1
20260507160053 11 199 16.1 35.4 0.00 0.00 0.00 93 1008.3
20260507154552 11 182 19.3 45.1 0.00 0.00 0.00 93 1008.3
20260507153101 11 150 20.9 40.2 0.00 0.00 0.00 94 1008.5
20260507151546 10 155 20.9 45.1 0.00 0.00 0.00 94 1009.1
20260507150045 11 156 12.9 46.7 0.00 0.00 0.00 96 1009.2
20260507144544 11 193 24.1 37.0 0.00 0.00 0.00 95 1009.7
20260507143049 11 182 24.1 51.5 0.00 0.00 0.00 95 1010.5
20260507141539 11 170 16.1 38.6 0.00 0.00 0.00 94 1010.6
20260507140039 11 183 22.5 38.6 0.00 0.00 0.00 93 1010.7
20260507134537 11 168 20.9 33.8 0.00 0.00 0.00 94 1010.9
20260507133044 11 149 20.9 53.1 0.00 0.00 0.00 94 1010.5
20260507131540 10 159 25.7 40.2 0.00 0.00 0.00 95 1010.9
20260507130035 10 163 19.3 40.2 0.00 0.00 0.00 96 1010.6
20260507124529 10 145 24.1 38.6 0.00 0.00 0.00 97 1010.8
20260507123026 9 145 16.1 32.2 0.00 0.00 0.00 97 1011.3
20260507121521 9 145 22.5 37.0 0.00 0.00 0.00 97 1012.0
20260507120019 9 173 24.1 46.7 0.00 0.00 0.00 97 1012.4
20260507114517 9 195 17.7 38.6 0.00 0.00 0.00 97 1012.5
20260507113023 9 199 17.7 38.6 0.00 0.00 0.00 97 1012.8
20260507111518 9 157 16.1 32.2 0.00 0.00 0.00 98 1012.4
20260507110013 9 196 22.5 37.0 0.00 0.00 0.00 98 1012.6
20260507104511 9 173 16.1 30.6 0.00 0.00 0.00 98 1013.4
20260507103008 8 164 14.5 30.6 0.00 0.00 0.00 98 1013.4
20260507101507 8 158 16.1 29.0 0.00 0.00 0.00 97 1013.3
20260507100010 8 171 14.5 24.1 0.00 0.00 0.00 97 1012.9
20260507094502 9 157 14.5 29.0 0.00 0.00 0.00 97 1013.0
20260507093102 9 156 17.7 27.4 0.00 0.00 0.00 97 1013.1
20260507091556 9 154 12.9 27.4 0.00 0.00 0.00 97 1013.6
20260507090059 9 191 16.1 29.0 0.00 0.00 0.00 97 1013.4
20260507084603 10 136 12.9 20.9 0.00 0.00 0.00 97 1013.5
20260507083051 10 165 9.7 22.5 0.00 0.00 0.00 96 1013.5
20260507081548 10 176 14.5 25.7 0.00 0.00 0.00 96 1013.8
20260507080050 10 155 8.0 24.1 0.00 0.00 0.00 96 1014.2
20260507074544 9 167 11.3 17.7 0.00 0.00 0.00 96 1014.3
20260507073043 9 155 12.9 20.9 0.00 0.00 0.00 96 1014.4
20260507071542 9 161 8.0 20.9 0.00 0.00 0.00 96 1014.6
20260507070059 9 190 12.9 27.4 0.00 0.00 0.00 96 1014.7
20260507064541 9 163 12.9 22.5 0.00 0.00 0.00 96 1014.7
20260507063035 10 170 14.5 24.1 0.00 0.00 0.00 96 1014.9
20260507061529 10 161 11.3 24.1 0.00 0.00 0.00 96 1015.0
20260507060033 11 201 16.1 32.2 0.00 0.00 0.00 97 1015.1
20260507054524 11 170 9.7 20.9 0.00 0.00 0.00 97 1015.3
20260507053022 11 153 14.5 25.7 0.00 0.00 0.00 97 1015.6
20260507051520 10 188 6.4 22.5 0.00 0.00 0.00 97 1015.9
20260507050037 11 174 8.0 25.7 0.00 0.00 0.00 97 1016.1
20260507044516 11 188 9.7 27.4 0.00 0.00 0.00 96 1016.2